Location: Waco, TX
(31.5480°N, 97.1670°W)
Time: 08:33:50
(UTC-05:00)

ISS - Pass Details

Date: 18 October 2019
Orbit: 411 x 421 km, 51.6° (Epoch: 18 October)

Event Time Altitude Azimuth Distance (km) Brightness Sun altitude
Rises 09:07:12 0° 233° (SW) 2,351 -0.2 18.1°
Reaches altitude 10° 09:09:19 10° 238° (WSW) 1,489 -1.2 18.5°
Maximum altitude 09:12:35 53° 317° (NW) 515 -3.4 19.2°
Drops below altitude 10° 09:15:53 10° 36° (NE) 1,492 -0.8 19.8°
Sets 09:18:01 0° 41° (NE) 2,355 0.2 20.2°
